This demonstration page uses our WeatherBlox Daily Observations layout. Learn more.

Left ArrowRight Arrow

41.86663, -103.66717

Hourly Observations for July 21, 2020

Temp ( °F °C ) Dew Point ( °F °C ) Humidity (%) Winds ( mph kmh ) Pressure ( in mb ) Visibility ( mi km ) Precip ( " mm )
12:53 am 00:53 Clear 62 16.7 57 13.9 84 84 NNW 6 9 29.97 1015 10 16 N/A
1:53 am 01:53 Clear 61 16.1 57 13.9 87 87 N 3 6 29.98 1015 10 16 N/A
2:53 am 02:53 Mostly Clear 62 16.7 57 13.9 84 84 NW 5 7 29.98 1015 10 16 N/A
3:53 am 03:53 Cloudy 63 17.2 57 13.9 81 81 W 3 6 29.98 1015 10 16 N/A
4:53 am 04:53 Cloudy 63 17.2 59 15 87 87 E 5 7 29.99 1016 10 16 N/A
5:53 am 05:53 Cloudy 63 17.2 58 14.4 84 84 ENE 5 7 29.99 1016 10 16 N/A
6:53 am 06:53 Cloudy 63 17.2 59 15 87 87 undefined N/A 29.99 1016 10 16 N/A
7:53 am 07:53 Partly Cloudy 65 18.3 58 14.4 78 78 undefined N/A 29.99 1016 10 16 N/A
8:53 am 08:53 Mostly Sunny 69 20.6 59 15 70 70 ESE 6 9 30.00 1016 10 16 N/A
9:53 am 09:53 Sunny 73 22.8 60 15.6 64 64 ESE 6 9 29.99 1016 10 16 N/A
10:53 am 10:53 Sunny 76 24.4 59 15 56 56 ESE 9 15 29.98 1015 10 16 N/A
11:53 am 11:53 Sunny 80 26.7 58 14.4 47 47 ESE 6 9 29.96 1015 10 16 N/A
12:53 pm 12:53 Sunny 82 27.8 58 14.4 44 44 E 10 17 29.94 1014 10 16 N/A
1:53 pm 13:53 Sunny 85 29.4 58 14.4 40 40 E 14 22 29.93 1013 10 16 N/A
2:53 pm 14:53 Sunny 86 30 58 14.4 39 39 E 15 24 29.91 1013 10 16 N/A
3:53 pm 15:53 Sunny 87 30.6 58 14.4 37 37 ESE 16 26 29.88 1012 10 16 N/A
4:53 pm 16:53 Sunny 87 30.6 56 13.3 35 35 E 14 22 29.87 1011 10 16 N/A
5:53 pm 17:53 Sunny 83 28.3 58 14.4 43 43 E 16 26 29.85 1011 10 16 N/A
6:53 pm 18:53 Sunny with Nearby Thunderstorms 80 26.7 59 15 49 49 E 13 20 29.85 1011 10 16 N/A
7:53 pm 19:53 Mostly Cloudy 75 23.9 62 16.7 64 64 SSE 13 20 29.89 1012 10 16 0.00 0.00
8:53 pm 20:53 Mostly Clear 72 22.2 61 16.1 68 68 SE 14 22 29.87 1012 10 16 N/A
9:16 pm 21:16 Clear 69 20.6 58 14.4 68 68 SSE 13 20 29.83 1010 10 16 N/A
9:53 pm 21:53 Clear 68 20 54 12.2 61 61 SE 9 15 29.90 1012 10 16 N/A
10:53 pm 22:53 Clear 65 18.3 55 12.8 70 70 SSE 6 9 29.91 1013 10 16 N/A
11:53 pm 23:53 Clear 63 17.2 56 13.3 78 78 ENE 5 7 29.89 1012 10 16 N/A

Powered by AerisWeather